Temperature
16 15 15 14 14 13 13 13 13 12 12 12 12 12 11 11 11 11 11 11 11 11 11 11 11 11 12 12 12 12 12 13 13 13 14 14 14 14 14 14 14 14 14
16 15 15 14 14 13 13 13 12 12 12 12 12 11 11 11 11 11 11 11 11 11 11 11 11 11 11 11 11 12 12 12 12 12 13 13 13 14 14 14 14 14 14
16 16 15 14 14 13 13 13 12 12 12 12 11 11 11 11 11 11 11 11 11 11 10 11 11 11 11 11 11 11 11 12 12 12 12 13 13 13 13 13 14 13 14
16 15 15 14 14 13 13 12 12 12 12 11 11 11 11 11 11 11 11 10 10 10 10 10 10 10 10 11 11 11 11 11 11 11 12 12 12 13 13 13 13 13 13
16 15 15 14 14 13 13 12 12 12 12 11 11 11 11 11 11 11 11 10 10 10 10 10 10 10 10 10 10 10 10 10 11 11 11 12 12 12 13 13 13 13 13
15 15 15 14 14 13 13 12 12 12 12 11 11 11 11 11 11 11 10 10 10 10 10 10 10 10 10 10 10 10 10 10 10 10 11 11 11 12 12 12 12 12 12
16 15 15 14 14 13 13 13 12 12 12 11 11 11 11 11 11 10 10 10 10 10 10 9 9 9 10 10 10 10 10 10 10 10 10 11 11 11 11 12 12 12 12
16 15 15 14 14 13 13 12 12 12 12 11 11 11 11 11 10 10 10 10 10 10 10 9 9 9 9 9 9 9 9 10 10 10 10 11 11 11 11 11 11 11 12
16 16 15 14 14 13 13 12 12 12 12 11 11 11 11 11 11 10 10 10 10 9 9 9 9 9 9 9 9 9 9 9 9 10 10 10 10 10 11 11 11 11 11
16 16 15 14 14 13 13 13 12 12 12 11 11 11 11 11 11 10 10 10 9 9 9 9 9 9 9 9 9 9 8 9 9 9 9 10 10 10 10 10 10 11 11
16 15 15 14 14 14 13 13 12 12 12 12 11 11 11 11 11 10 10 10 9 9 9 9 9 9 9 9 8 8 8 8 8 9 9 9 10 10 10 10 10 11 11
16 15 15 14 14 14 13 13 12 12 12 12 11 11 11 11 11 11 10 10 9 9 9 9 8 8 8 8 8 8 8 8 8 8 8 9 9 10 10 10 10 11 11
16 15 15 15 14 14 13 13 12 12 12 12 12 12 12 11 11 10 10 10 9 9 9 8 8 8 8 8 8 8 8 8 8 8 8 8 9 10 10 10 10 10 10
16 15 15 14 14 14 13 13 13 13 13 12 12 12 11 11 11 10 10 9 9 8 8 8 8 8 8 8 8 8 8 8 8 8 8 8 9 9 10 10 10 10 10
15 15 14 14 14 14 14 14 14 13 13 13 12 12 11 11 11 10 10 9 9 9 8 8 8 8 8 8 8 8 8 8 8 8 8 8 9 9 9 10 10 10 10
15 14 14 14 14 14 14 14 14 14 13 13 12 12 12 11 11 10 10 10 9 9 9 9 8 8 8 8 8 8 8 8 8 8 8 8 8 9 9 10 10 10 10
14 14 14 14 14 14 14 14 14 14 13 13 13 12 12 12 11 11 10 10 9 9 9 9 8 8 8 8 8 8 8 8 8 8 8 8 8 9 9 9 9 10 10
14 14 14 13 14 14 14 14 14 13 13 13 13 12 12 12 11 11 10 10 10 9 9 9 8 8 8 8 8 8 8 8 8 8 8 8 8 9 9 9 9 9 10
13 13 13 13 13 13 14 14 13 13 13 13 13 12 12 12 11 11 10 10 10 9 9 9 9 9 9 9 9 9 9 9 9 8 8 8 8 9 9 9 9 9 10
13 13 13 13 13 13 13 13 13 13 13 13 13 12 12 12 11 11 10 10 10 9 9 9 9 9 9 9 9 9 9 9 9 9 8 8 8 9 9 9 9 9 10
12 12 13 13 13 13 13 13 13 13 13 13 12 12 12 12 11 11 11 10 10 9 9 9 9 9 9 9 9 9 9 9 9 9 9 9 9 9 9 9 9 10 10
11 12 12 12 13 13 13 13 13 13 13 12 12 12 12 11 11 11 11 10 10 10 9 9 9 9 9 9 9 9 9 9 9 9 9 9 9 9 9 9 9 10 10
11 11 12 12 12 12 12 12 12 12 12 12 12 12 11 11 11 11 11 10 10 10 10 9 9 9 9 9 9 9 9 9 9 9 9 9 9 9 9 9 9 9 10
10 11 11 11 12 12 12 12 12 12 12 12 12 11 11 11 11 11 10 10 10 10 10 9 9 9 9 9 9 9 9 9 9 9 9 9 9 9 9 9 10 10 10
10 10 10 11 11 11 12 11 11 11 11 11 11 11 11 11 11 10 10 10 10 10 9 9 9 9 9 9 9 9 9 9 9 9 9 9 9 9 9 10 10 10 10
9 10 10 10 10 10 11 11 11 11 11 11 10 10 10 11 10 10 10 10 10 10 9 9 9 9 9 9 9 9 9 9 9 9 9 9 9 9 10 10 10 10 10
Wind_Speed
3 2 1 3 4 5 5 6 6 5 6 6 7 7 7 7 7 7 7 8 8 8 8 8 8 8 6 6 6 6 6 6 8 7 6 4 3 3 2 4 5 6 8
3 2 2 3 3 5 6 6 6 6 6 6 7 7 8 8 7 7 8 8 8 8 8 8 8 8 8 7 7 8 7 7 7 8 7 5 6 5 4 4 3 5 5
1 1 1 2 3 4 5 5 6 6 6 6 7 7 7 7 7 7 7 8 8 8 8 8 8 8 8 7 7 8 7 8 7 7 7 6 5 5 5 4 4 3 4
0 1 2 3 3 4 5 5 6 6 7 7 7 7 7 8 8 8 7 7 7 7 8 8 9 9 9 8 8 8 8 8 7 7 7 6 5 5 4 4 4 3 4
1 3 3 3 3 4 5 6 6 6 8 7 7 7 7 8 8 5 5 8 7 7 8 8 10 11 11 9 10 7 6 5 6 6 6 6 6 5 5 4 4 3 3
3 4 3 3 4 5 5 6 6 6 6 7 7 8 9 10 4 3 4 7 7 8 9 9 10 11 13 14 15 14 11 9 7 7 6 7 7 6 4 4 4 3 3
4 4 4 4 5 5 7 6 6 6 7 7 8 8 9 9 9 9 9 7 8 9 9 9 11 13 10 8 10 13 14 16 15 10 10 9 8 6 5 4 4 4 3
4 4 4 4 5 5 5 6 6 6 7 7 8 9 9 10 9 10 10 8 10 10 11 11 11 11 12 9 8 8 8 9 12 12 11 11 11 7 6 6 5 3 2
4 3 4 4 5 5 6 6 6 6 7 8 8 9 9 9 9 10 10 7 9 10 11 11 10 9 10 9 8 8 9 9 12 14 15 14 14 11 7 4 4 4 4
3 3 3 4 5 6 7 7 7 6 7 9 9 8 9 9 8 10 11 7 9 9 8 8 10 9 9 8 7 8 9 9 9 9 8 11 11 11 12 9 7 6 4
3 3 4 5 5 7 7 6 6 7 8 9 10 10 9 10 10 12 13 8 8 8 8 7 5 4 6 8 8 8 9 8 7 7 7 7 7 8 9 10 9 8 7
4 4 5 5 7 8 6 6 6 7 8 10 10 10 8 7 8 9 13 14 11 8 8 8 5 4 6 8 8 10 10 8 8 7 7 7 7 8 8 9 10 9 7
5 5 6 7 7 7 8 8 8 7 8 8 7 7 6 4 4 8 12 14 14 10 9 11 12 13 11 10 14 14 10 8 8 9 9 8 8 8 8 8 8 8 7
6 6 6 8 9 9 8 8 7 7 6 6 6 7 6 5 3 1 3 6 9 10 9 11 13 15 13 12 10 9 9 9 9 9 8 7 6 6 7 7 7 7 6
7 7 8 10 11 9 9 8 8 7 7 7 7 7 7 7 3 2 4 5 5 5 6 7 9 8 8 8 8 8 8 9 10 9 7 7 6 6 6 6 7 7 7
7 8 9 9 8 8 7 7 9 11 11 13 14 12 9 9 9 9 9 8 7 6 5 8 9 9 9 7 7 7 7 8 8 8 7 7 7 7 6 6 6 7 8
7 8 9 10 9 9 8 7 7 7 11 14 16 16 16 15 14 12 11 10 10 7 6 9 9 9 8 7 7 7 7 7 7 7 7 7 7 7 7 7 7 8 8
8 10 10 10 9 9 8 8 7 7 7 7 9 14 17 17 17 15 9 5 8 7 8 9 9 8 7 7 7 7 6 5 6 7 7 7 7 7 7 7 8 9 8
9 10 9 10 9 10 9 9 8 7 7 7 6 6 11 13 14 13 7 6 9 9 8 8 7 7 7 6 6 6 5 5 6 6 6 7 7 7 7 8 8 10 9
9 13 12 11 11 10 9 9 8 7 7 7 6 5 3 4 5 6 7 8 8 8 7 7 6 6 6 5 5 5 5 5 5 6 6 6 6 7 8 9 8 9 9
11 12 12 10 10 10 9 8 7 8 7 7 6 5 4 5 6 6 5 5 6 6 6 7 6 6 5 5 5 5 5 5 5 5 6 6 6 6 7 7 8 9 8
11 12 11 10 9 9 8 8 9 8 8 8 6 4 6 6 7 5 4 4 4 4 5 5 5 4 4 4 4 4 4 4 4 4 5 5 5 6 6 7 7 7 8
12 13 12 11 10 11 10 9 8 7 7 7 6 5 4 4 5 4 4 4 3 4 4 4 4 4 4 3 3 3 3 3 3 3 4 5 5 5 5 6 8 8 8
14 14 14 12 11 11 10 8 8 8 6 5 4 5 5 4 4 4 4 4 3 3 4 3 3 4 4 2 2 2 1 1 2 2 3 4 5 5 5 6 7 9 9
14 14 14 12 11 11 9 8 8 7 6 4 4 5 5 4 3 4 4 3 3 3 4 4 2 3 4 3 1 1 3 2 1 1 2 2 4 6 6 6 7 8 8
14 14 13 11 10 9 9 7 7 7 5 3 4 5 5 4 3 3 3 3 3 3 4 3 3 2 3 1 2 4 3 3 2 2 2 2 3 4 5 5 7 7 9
Wind_Direction
217 213 295 288 300 308 300 295 299 303 304 298 293 291 290 287 284 282 279 277 276 276 277 272 266 263 266 274 275 268 256 248 256 265 272 274 240 248 221 223 234 233 227
199 189 224 256 283 293 297 308 312 306 299 295 292 291 289 290 290 289 289 290 286 283 280 278 277 274 264 260 265 271 268 262 257 263 268 269 257 243 232 227 238 245 235
195 193 235 267 281 290 296 301 301 299 295 292 289 289 290 290 286 282 278 279 280 280 281 280 278 276 274 264 261 263 265 267 258 258 262 254 255 243 236 234 235 233 238
47 302 280 278 283 286 291 293 294 295 293 288 287 285 284 284 281 278 279 278 281 283 282 280 278 274 272 271 268 258 259 265 270 267 265 261 252 240 222 225 233 224 229
276 278 281 284 285 284 284 286 286 288 291 292 292 288 285 283 279 286 288 286 293 294 289 283 278 275 270 266 267 264 269 270 271 269 267 266 256 239 225 216 227 225 228
229 263 273 276 276 278 280 279 282 285 288 287 285 287 287 289 301 294 277 295 292 288 286 284 283 273 263 250 246 248 247 252 256 260 265 265 269 268 253 235 219 219 231
220 245 258 265 274 278 290 297 297 294 288 284 282 283 284 283 269 252 246 265 276 277 278 279 282 282 291 278 257 247 244 243 240 244 255 259 265 269 267 250 240 233 232
225 239 253 265 279 286 287 289 289 288 286 285 284 283 282 282 267 245 241 252 269 270 269 268 267 271 278 282 281 273 262 253 242 236 239 246 252 257 254 244 233 228 232
238 242 260 272 282 285 285 287 290 287 286 284 285 281 280 280 262 242 234 262 267 271 271 271 269 268 268 269 267 267 267 264 261 247 229 232 233 234 232 229 213 207 227
252 258 265 265 270 277 279 279 281 281 283 285 285 285 285 284 265 237 225 254 269 277 279 274 270 267 268 255 250 260 267 269 276 280 256 241 235 229 218 215 215 211 213
262 267 266 263 263 263 263 264 270 277 283 285 285 283 277 272 261 239 224 238 264 280 288 292 299 305 270 257 251 256 262 274 283 276 270 256 240 229 220 214 212 210 212
252 261 265 266 274 282 279 274 269 271 278 278 276 276 271 263 252 237 221 225 247 268 279 286 293 292 282 271 259 254 260 266 263 261 255 250 242 233 224 215 210 209 207
251 260 265 269 266 268 269 270 268 263 268 277 285 290 289 280 251 228 224 231 237 247 268 281 288 279 270 263 251 249 250 247 246 247 248 245 237 234 224 215 212 204 200
248 259 265 267 265 261 253 259 265 271 275 285 292 298 304 300 300 248 225 233 236 246 265 280 278 266 256 256 262 246 234 237 238 241 243 247 243 231 221 211 205 194 193
249 257 266 268 268 265 260 251 254 256 261 262 277 286 292 295 293 256 282 295 306 317 311 287 280 276 264 249 246 240 232 229 234 238 242 243 242 234 222 210 199 191 194
253 260 269 274 277 277 277 274 249 244 247 241 241 250 264 262 263 260 260 261 267 272 280 276 278 277 272 262 254 249 238 233 232 230 231 233 230 227 224 212 197 195 197
257 267 275 281 285 289 287 284 284 270 247 243 244 244 244 256 263 266 269 277 273 249 251 265 270 272 270 266 257 249 244 233 227 226 227 228 225 221 216 210 201 197 199
276 274 271 272 273 274 277 279 280 282 285 279 252 237 239 245 252 257 260 277 272 239 243 257 265 268 269 269 264 255 248 236 226 223 222 222 219 214 212 208 203 198 196
294 285 279 281 282 282 282 283 284 286 286 286 284 250 232 238 245 249 229 239 263 271 266 263 265 268 268 264 262 255 245 234 228 222 219 219 218 213 211 207 202 196 194
293 285 281 283 284 284 283 283 286 285 283 285 287 286 259 236 246 238 217 231 250 264 270 273 273 273 268 262 261 252 240 231 228 223 218 217 218 211 209 207 199 192 193
306 301 289 281 279 280 280 283 283 285 287 288 285 285 274 280 283 277 262 246 254 264 267 268 267 268 269 264 257 250 242 230 223 220 216 214 215 213 209 205 195 189 186
309 304 302 297 291 287 288 288 287 287 292 293 288 275 230 252 278 284 289 283 275 267 268 270 274 273 267 266 260 247 245 240 227 221 214 209 209 212 205 196 193 186 184
310 306 303 300 297 292 287 282 281 284 288 292 295 297 265 257 278 286 289 292 294 289 281 271 279 283 280 276 267 251 247 246 239 227 212 206 206 206 196 184 182 179 180
309 304 301 299 297 297 295 295 290 290 292 296 298 296 288 275 276 289 295 297 299 298 298 283 275 287 295 283 256 236 237 252 251 249 235 208 200 201 193 184 182 182 181
307 304 302 301 300 296 297 298 297 298 298 296 292 289 291 295 298 299 298 296 305 304 298 293 283 285 287 283 282 126 105 82 51 307 240 214 198 198 195 188 181 177 173
308 306 306 305 304 306 308 309 307 298 290 294 298 296 294 299 303 306 311 315 310 302 296 294 289 302 311 328 84 124 128 114 77 10 318 252 211 201 194 184 181 180 175
Height
1520 1519 1519 1518 1517 1516 1515 1514 1512 1511 1509 1507 1506 1505 1503 1502 1501 1500 1499 1498 1497 1496 1496 1495 1495 1494 1494 1494 1495 1495 1495 1496 1495 1494 1495 1495 1494 1494 1494 1493 1493 1493 1493
1518 1517 1517 1516 1515 1513 1512 1511 1509 1507 1506 1504 1502 1501 1499 1498 1497 1496 1494 1493 1492 1491 1490 1490 1489 1489 1489 1489 1489 1489 1489 1490 1490 1489 1490 1490 1490 1490 1489 1489 1488 1488 1488
1516 1516 1515 1513 1512 1511 1509 1507 1506 1504 1502 1500 1499 1497 1495 1494 1492 1491 1490 1488 1487 1486 1485 1485 1484 1483 1483 1483 1483 1483 1483 1484 1484 1484 1484 1484 1485 1485 1485 1484 1484 1484 1484
1514 1513 1512 1511 1509 1508 1506 1504 1503 1501 1499 1497 1495 1493 1491 1490 1488 1487 1485 1484 1483 1481 1480 1479 1478 1478 1477 1477 1477 1477 1478 1478 1478 1478 1478 1479 1479 1480 1480 1480 1479 1479 1479
1511 1510 1509 1508 1507 1505 1503 1501 1499 1498 1496 1494 1491 1489 1488 1486 1484 1483 1481 1480 1478 1476 1475 1473 1472 1472 1471 1471 1471 1471 1472 1472 1472 1472 1472 1473 1474 1475 1475 1475 1475 1475 1475
1508 1507 1506 1505 1504 1502 1500 1498 1496 1494 1492 1490 1487 1485 1483 1482 1481 1479 1477 1475 1473 1471 1469 1467 1466 1465 1465 1465 1465 1465 1466 1466 1466 1467 1467 1467 1468 1469 1470 1470 1470 1471 1471
1505 1504 1503 1502 1501 1499 1497 1495 1493 1490 1488 1486 1483 1481 1479 1477 1475 1473 1471 1469 1467 1465 1463 1462 1461 1460 1460 1459 1459 1458 1459 1459 1460 1460 1460 1461 1462 1464 1465 1465 1466 1466 1466
1502 1502 1501 1499 1498 1496 1494 1491 1489 1487 1484 1481 1479 1477 1474 1472 1471 1469 1466 1464 1462 1460 1458 1456 1455 1454 1454 1453 1452 1452 1452 1452 1453 1453 1453 1454 1456 1458 1459 1461 1461 1462 1463
1499 1498 1497 1496 1494 1492 1490 1488 1485 1483 1480 1477 1475 1473 1470 1468 1466 1463 1461 1459 1456 1454 1453 1452 1450 1449 1448 1447 1446 1445 1445 1445 1446 1446 1447 1447 1449 1451 1453 1455 1456 1457 1458
1496 1495 1493 1492 1490 1488 1486 1483 1481 1479 1476 1473 1470 1468 1465 1463 1461 1458 1456 1454 1452 1450 1448 1447 1445 1444 1442 1441 1440 1439 1438 1438 1439 1440 1440 1441 1442 1444 1446 1448 1450 1452 1453
1492 1490 1489 1488 1486 1484 1482 1479 1477 1474 1472 1469 1466 1463 1460 1458 1455 1453 1451 1449 1447 1445 1443 1442 1440 1438 1436 1435 1434 1433 1432 1433 1433 1433 1433 1434 1436 1437 1439 1441 1444 1446 1448
1487 1486 1485 1483 1482 1480 1478 1475 1472 1470 1467 1464 1461 1459 1456 1453 1451 1448 1447 1445 1443 1440 1438 1436 1434 1432 1430 1429 1428 1427 1427 1426 1426 1427 1427 1428 1429 1431 1433 1435 1438 1440 1443
1483 1482 1480 1478 1476 1475 1473 1470 1468 1466 1463 1460 1458 1455 1453 1450 1447 1444 1442 1440 1437 1435 1433 1430 1428 1426 1424 1422 1421 1420 1420 1420 1420 1420 1421 1422 1424 1425 1427 1430 1432 1435 1438
1478 1477 1475 1473 1471 1469 1468 1466 1463 1461 1459 1457 1454 1451 1448 1446 1443 1440 1437 1435 1432 1430 1427 1424 1422 1420 1418 1416 1415 1414 1413 1413 1414 1414 1415 1417 1419 1420 1422 1424 1427 1429 1432
1473 1472 1470 1469 1467 1465 1463 1460 1458 1456 1454 1451 1449 1446 1443 1440 1438 1436 1433 1430 1428 1425 1422 1419 1416 1414 1412 1410 1409 1408 1408 1408 1408 1409 1410 1411 1413 1415 1417 1419 1422 1424 1427
1468 1467 1466 1464 1462 1460 1458 1455 1452 1451 1448 1445 1443 1441 1438 1435 1432 1430 1427 1425 1422 1419 1416 1413 1411 1409 1407 1406 1404 1403 1403 1403 1403 1404 1405 1406 1408 1410 1412 1414 1417 1420 1422
1463 1462 1460 1459 1457 1454 1452 1449 1447 1445 1442 1440 1437 1435 1432 1430 1427 1425 1422 1419 1417 1414 1411 1408 1406 1404 1402 1401 1400 1399 1398 1398 1398 1399 1400 1401 1403 1405 1407 1409 1412 1415 1418
1458 1457 1455 1453 1451 1449 1446 1444 1442 1439 1436 1434 1432 1429 1427 1424 1422 1420 1417 1414 1411 1409 1406 1403 1401 1399 1397 1396 1395 1394 1393 1393 1393 1393 1394 1396 1397 1400 1402 1404 1407 1410 1413
1453 1451 1449 1448 1446 1443 1441 1439 1436 1434 1431 1428 1426 1424 1422 1419 1417 1415 1412 1409 1407 1404 1402 1399 1397 1395 1393 1392 1390 1390 1389 1389 1389 1389 1390 1391 1393 1395 1397 1400 1403 1406 1409
1448 1446 1444 1442 1440 1437 1435 1433 1431 1428 1426 1423 1421 1419 1417 1415 1412 1410 1407 1405 1402 1399 1397 1394 1392 1390 1389 1388 1387 1386 1385 1385 1385 1385 1385 1387 1389 1391 1393 1396 1399 1402 1405
1444 1441 1439 1436 1434 1432 1430 1427 1425 1423 1421 1419 1416 1414 1412 1411 1408 1406 1404 1401 1398 1395 1392 1390 1388 1386 1385 1384 1383 1382 1382 1381 1381 1382 1382 1383 1385 1387 1389 1392 1395 1398 1401
1440 1437 1435 1432 1429 1427 1424 1422 1420 1418 1416 1413 1411 1409 1407 1405 1404 1402 1399 1397 1394 1391 1389 1387 1385 1383 1382 1381 1380 1379 1379 1379 1379 1379 1380 1381 1382 1384 1387 1389 1392 1395 1399
1436 1433 1430 1427 1424 1421 1419 1416 1414 1412 1410 1408 1406 1404 1403 1401 1399 1397 1395 1393 1390 1388 1385 1383 1381 1380 1379 1377 1377 1377 1376 1376 1376 1377 1377 1378 1380 1382 1384 1387 1390 1393 1396
1432 1429 1425 1422 1419 1416 1413 1411 1408 1407 1405 1403 1401 1400 1398 1397 1395 1394 1392 1389 1387 1385 1382 1380 1379 1377 1376 1375 1374 1374 1374 1374 1374 1374 1375 1376 1378 1380 1383 1385 1388 1391 1394
1427 1423 1420 1417 1414 1411 1408 1406 1403 1402 1400 1398 1397 1396 1394 1393 1392 1390 1388 1386 1384 1382 1380 1378 1377 1375 1374 1372 1372 1371 1372 1372 1372 1373 1374 1375 1377 1379 1381 1384 1386 1389 1392
1422 1418 1415 1412 1409 1406 1403 1401 1399 1397 1395 1394 1393 1391 1390 1389 1388 1386 1385 1383 1381 1379 1378 1376 1374 1373 1371 1370 1369 1369 1369 1370 1370 1371 1373 1374 1376 1378 1380 1382 1385 1388 1390